Flag for U.S.A. Weather past 2 weeks in Cape Coral, Florida, U.S.A.

Now
93 °F

Partly sunny.


Feels Like: 99 °F
Forecast: 79 / 96 °F
Wind: 13 mph from North

Location: Page Field

Current Time: Aug 20, 2014 at 3:41:28 PM

Latest Report: Aug 20, 2014 at 2:53 PM


Visibility: 10 mi

Pressure: 30.05 "Hg

Humidity: 47%

Dew point: 70 °F

Location of Cape CoralLocation

Historic Weather in Cape Coral — Graph

°F

Cape Coral temperature yesterday

Maximum temperature yesterday: 96 °F (at 3:53 PM)
Minimum temperature yesterday: 80 °F (at 1:53 AM)
Average temperature yesterday: 86 °F

Past Weeks' High & Low Weather Summary

 TemperatureHumidityPressure
High96 °F (Aug 19, 3:53 PM)100% (Aug 15, 7:53 PM)30.12 "Hg (Aug 15, 7:53 PM)
Low72 °F (Aug 15, 6:53 PM)40% (Aug 18, 2:53 PM)29.95 "Hg (Aug 7, 5:53 PM)
Average83 °F76%30.03 "Hg
* Reported Aug 5 1:53 PM — Aug 20 1:53 PM, Cape Coral, Weather by CustomWeather, © 2014

Note: Actual official high and low records may vary slightly from our data, if they occured in-between our weather recording intervals... More about our weather records

Advertising

Cape Coral weather history for previous 24 hours

 ConditionsComfort  
Time TempWeatherWind HumidityBarometerVisibility
1:53 PM
Aug 20
92 °FPartly sunny.8 mph49%30.07 "Hg10 mi
12:53 PM91 °FPartly sunny.7 mph54%30.09 "Hg10 mi
11:53 AM92 °FPassing clouds.3 mph52%30.10 "Hg10 mi
10:53 AM90 °FSunny.7 mph59%30.10 "Hg10 mi
9:53 AM88 °FSunny.5 mph59%30.09 "Hg10 mi
8:53 AM85 °FSunny.5 mph70%30.07 "Hg10 mi
7:53 AM81 °FPassing clouds.6 mph85%30.06 "Hg10 mi
6:53 AM80 °FClear.No wind87%30.04 "Hg10 mi
5:53 AM80 °FClear.No wind90%30.01 "Hg10 mi
4:53 AM80 °FPassing clouds.No wind90%30.00 "Hg10 mi
3:53 AM80 °FClear.3 mph94%30.00 "Hg10 mi
2:53 AM81 °FClear.3 mph88%30.01 "Hg10 mi
1:53 AM83 °FClear.No wind79%30.01 "Hg10 mi
12:53 AM84 °FClear.5 mph77%30.02 "Hg10 mi
11:53 PM
Aug 19
84 °FClear.6 mph77%30.02 "Hg10 mi
10:53 PM85 °FClear.3 mph75%30.03 "Hg10 mi
9:53 PM86 °FClear.6 mph67%30.01 "Hg10 mi
8:53 PM87 °FSunny.6 mph63%30.00 "Hg10 mi
7:53 PM88 °FPartly sunny.8 mph59%29.99 "Hg10 mi
6:53 PM91 °FThundershowers. Sunny.13 mph54%29.97 "Hg10 mi
5:53 PM93 °FThundershowers. Sunny.12 mph54%29.97 "Hg10 mi
4:53 PM92 °FPassing clouds.13 mph51%29.97 "Hg10 mi
3:53 PM96 °FPassing clouds.6 mph41%29.97 "Hg10 mi
Weather by CustomWeather, © 2014

See weather overviewHow to use our weather pages